Вернуться в каталог

QIANFAN-196

АктивенСвязьPO
NORAD 69414·PAYLOAD·🇨🇳 China

Запущен Jun 5, 2026 с Wenchang Space Launch Site

Loading…

Ближайшие Пролёты (ближайшие 24 часа)

TLE

СвежийSource: Space-Track

Эпоха: Sep 14, 2026, 23:05 UTC

1 69414U 26125P   26257.96190728  .00000014  00000-0  35577-5 0  9991
2 69414  88.9905 270.8630 0001856  92.4334 267.7030 13.51035260 14080

Отслеживайте QIANFAN-196 в реальном времени с AllMySat

Download on the App Store